| time (UTC) | temp F | wind direction | speed MPH | gust MPH | rain 1hr in | rain 24hr in | rain mn in | humidity % | barometer mb |
| 20260503190017 | 66 | 36 | 3.0 | 9.0 | 0.00 | 0.00 | 0.00 | 17 | 1017.0 |
| 20260503185941 | 67 | 45 | 3.0 | 8.0 | 0.00 | 0.00 | 0.00 | 18 | 1016.4 |
| 20260503185440 | 67 | 47 | 3.0 | 8.0 | 0.00 | 0.00 | 0.00 | 16 | 1016.5 |
| 20260503184941 | 67 | 33 | 3.0 | 12.0 | 0.00 | 0.00 | 0.00 | 16 | 1016.5 |
| 20260503184534 | 66 | 77 | 4.0 | 13.0 | 0.00 | 0.00 | 0.00 | 15 | 1017.4 |
| 20260503184438 | 67 | 316 | 3.0 | 12.0 | 0.00 | 0.00 | 0.00 | 16 | 1016.6 |
| 20260503183938 | 68 | 352 | 3.0 | 11.0 | 0.00 | 0.00 | 0.00 | 14 | 1016.9 |
| 20260503183439 | 68 | 283 | 4.0 | 10.0 | 0.00 | 0.00 | 0.00 | 16 | 1017.0 |
| 20260503183026 | 68 | 327 | 3.0 | 11.0 | 0.00 | 0.00 | 0.00 | 15 | 1017.7 |
| 20260503182938 | 68 | 349 | 3.0 | 10.0 | 0.00 | 0.00 | 0.00 | 16 | 1017.1 |
| 20260503182439 | 68 | 319 | 3.0 | 8.0 | 0.00 | 0.00 | 0.00 | 16 | 1017.1 |
| 20260503181939 | 67 | 359 | 3.0 | 8.0 | 0.00 | 0.00 | 0.00 | 17 | 1017.1 |
| 20260503181525 | 67 | 273 | 3.0 | 12.0 | 0.00 | 0.00 | 0.00 | 15 | 1017.8 |
| 20260503181439 | 67 | 287 | 2.0 | 11.0 | 0.00 | 0.00 | 0.00 | 17 | 1017.3 |
| 20260503180940 | 67 | 37 | 2.0 | 11.0 | 0.00 | 0.00 | 0.00 | 18 | 1017.3 |
| 20260503180021 | 65 | 110 | 1.0 | 11.0 | 0.00 | 0.00 | 0.00 | 16 | 1018.1 |
| 20260503175937 | 65 | 139 | 4.0 | 10.0 | 0.00 | 0.00 | 0.00 | 17 | 1017.5 |
| 20260503175438 | 66 | 297 | 3.0 | 8.0 | 0.00 | 0.00 | 0.00 | 14 | 1017.6 |
| 20260503174937 | 65 | 53 | 4.0 | 10.0 | 0.00 | 0.00 | 0.00 | 15 | 1017.6 |
| 20260503174519 | 64 | 311 | 3.0 | 11.0 | 0.00 | 0.00 | 0.00 | 15 | 1018.3 |
| 20260503173931 | 65 | 262 | 4.0 | 10.0 | 0.00 | 0.00 | 0.00 | 17 | 1017.9 |
| 20260503173425 | 64 | 257 | 4.0 | 12.0 | 0.00 | 0.00 | 0.00 | 18 | 1017.9 |
| 20260503173030 | 64 | 281 | 4.0 | 13.0 | 0.00 | 0.00 | 0.00 | 17 | 1018.5 |
| 20260503172919 | 64 | 2 | 4.0 | 12.0 | 0.00 | 0.00 | 0.00 | 18 | 1018.0 |
| 20260503172413 | 64 | 302 | 4.0 | 10.0 | 0.00 | 0.00 | 0.00 | 17 | 1017.9 |
| 20260503171526 | 64 | 281 | 2.0 | 11.0 | 0.00 | 0.00 | 0.00 | 18 | 1018.6 |
| 20260503171402 | 64 | 359 | 5.0 | 10.0 | 0.00 | 0.00 | 0.00 | 18 | 1018.1 |
| 20260503170856 | 64 | 318 | 5.0 | 9.0 | 0.00 | 0.00 | 0.00 | 19 | 1018.2 |
| 20260503170349 | 64 | 305 | 4.0 | 9.0 | 0.00 | 0.00 | 0.00 | 19 | 1018.2 |
| 20260503150244 | 61 | 278 | 4.0 | 11.0 | 0.00 | 0.00 | 0.00 | 25 | 1019.0 |
| 20260503110824 | 44 | 283 | 1.0 | 3.0 | 0.00 | 0.00 | 0.00 | 43 | 1018.2 |
| 20260503110319 | 44 | 306 | 1.0 | 3.0 | 0.00 | 0.00 | 0.00 | 44 | 1018.2 |
| 20260503100207 | 39 | 343 | 0.0 | 1.0 | 0.00 | 0.00 | 0.00 | 59 | 1018.2 |
| 20260503081524 | 37 | 312 | 0.0 | 1.0 | 0.00 | 0.00 | 0.00 | 60 | 1019.2 |
| 20260503081501 | 37 | 317 | 0.0 | 1.0 | 0.00 | 0.00 | 0.00 | 60 | 1018.7 |
| 20260503080449 | 37 | 317 | 0.0 | 0.0 | 0.00 | 0.00 | 0.00 | 60 | 1018.7 |
| 20260503072935 | 37 | 317 | 0.0 | 0.0 | 0.00 | 0.00 | 0.00 | 59 | 1019.1 |
| 20260503072435 | 38 | 317 | 0.0 | 0.0 | 0.00 | 0.00 | 0.00 | 58 | 1019.1 |
| 20260503071937 | 38 | 317 | 0.0 | 0.0 | 0.00 | 0.00 | 0.00 | 56 | 1019.2 |
| 20260503071524 | 38 | 312 | 0.0 | 0.0 | 0.00 | 0.00 | 0.00 | 55 | 1019.7 |
| 20260503071436 | 38 | 317 | 0.0 | 0.0 | 0.00 | 0.00 | 0.00 | 56 | 1019.2 |
| 20260503054915 | 40 | 246 | 0.0 | 0.0 | 0.00 | 0.00 | 0.00 | 54 | 1019.8 |
| 20260503054535 | 40 | 244 | 0.0 | 0.0 | 0.00 | 0.00 | 0.00 | 54 | 1020.4 |
| 20260503054408 | 40 | 246 | 0.0 | 0.0 | 0.00 | 0.00 | 0.00 | 54 | 1019.9 |
| 20260503053902 | 41 | 244 | 0.0 | 0.0 | 0.00 | 0.00 | 0.00 | 53 | 1019.9 |
| 20260503053356 | 41 | 244 | 0.0 | 0.0 | 0.00 | 0.00 | 0.00 | 51 | 1020.1 |
| 20260503053035 | 41 | 242 | 0.0 | 0.0 | 0.00 | 0.00 | 0.00 | 50 | 1020.6 |
| 20260503052850 | 41 | 244 | 0.0 | 0.0 | 0.00 | 0.00 | 0.00 | 51 | 1020.1 |
| 20260503052344 | 41 | 244 | 0.0 | 0.0 | 0.00 | 0.00 | 0.00 | 50 | 1020.1 |
| 20260503051529 | 40 | 242 | 0.0 | 0.0 | 0.00 | 0.00 | 0.00 | 51 | 1020.8 |
| 20260503050826 | 41 | 244 | 0.0 | 0.0 | 0.00 | 0.00 | 0.00 | 52 | 1020.2 |
| 20260503050320 | 41 | 244 | 0.0 | 0.0 | 0.00 | 0.00 | 0.00 | 50 | 1020.2 |
| 20260503050021 | 41 | 242 | 0.0 | 0.0 | 0.00 | 0.00 | 0.00 | 50 | 1020.9 |
| 20260503045814 | 41 | 244 | 0.0 | 0.0 | 0.00 | 0.00 | 0.00 | 50 | 1020.2 |
| 20260503045308 | 42 | 244 | 0.0 | 0.0 | 0.00 | 0.00 | 0.00 | 49 | 1020.3 |
| 20260503044524 | 42 | 242 | 0.0 | 0.0 | 0.00 | 0.00 | 0.00 | 46 | 1020.7 |
| 20260503043750 | 43 | 244 | 0.0 | 0.0 | 0.00 | 0.00 | 0.00 | 45 | 1020.1 |
| 20260503043244 | 44 | 244 | 0.0 | 0.0 | 0.00 | 0.00 | 0.00 | 44 | 1020.2 |
| 20260503043027 | 43 | 242 | 0.0 | 0.0 | 0.00 | 0.00 | 0.00 | 43 | 1020.8 |
| 20260503042738 | 44 | 244 | 0.0 | 0.0 | 0.00 | 0.00 | 0.00 | 43 | 1020.2 |
| 20260503042232 | 45 | 244 | 0.0 | 0.0 | 0.00 | 0.00 | 0.00 | 41 | 1020.2 |
| 20260503041726 | 45 | 244 | 0.0 | 0.0 | 0.00 | 0.00 | 0.00 | 39 | 1020.2 |
| 20260503041529 | 45 | 242 | 0.0 | 1.0 | 0.00 | 0.00 | 0.00 | 38 | 1020.6 |
| 20260503041220 | 46 | 244 | 0.0 | 1.0 | 0.00 | 0.00 | 0.00 | 38 | 1020.2 |
| 20260503040713 | 46 | 244 | 0.0 | 1.0 | 0.00 | 0.00 | 0.00 | 37 | 1020.2 |
| 20260503040208 | 47 | 244 | 0.0 | 0.0 | 0.00 | 0.00 | 0.00 | 37 | 1020.1 |
| 20260503040020 | 46 | 242 | 0.0 | 0.0 | 0.00 | 0.00 | 0.00 | 36 | 1020.8 |
| 20260503035702 | 47 | 244 | 0.0 | 0.0 | 0.00 | 0.00 | 0.00 | 35 | 1020.1 |
| 20260503035156 | 48 | 244 | 0.0 | 0.0 | 0.00 | 0.00 | 0.00 | 35 | 1020.1 |
| 20260503034650 | 49 | 244 | 0.0 | 0.0 | 0.00 | 0.00 | 0.00 | 32 | 1020.1 |
| 20260503034534 | 48 | 241 | 0.0 | 0.0 | 0.00 | 0.00 | 0.00 | 32 | 1020.6 |
| 20260503034143 | 49 | 243 | 0.0 | 0.0 | 0.00 | 0.00 | 0.00 | 32 | 1019.9 |
| 20260503033637 | 50 | 243 | 1.0 | 2.0 | 0.00 | 0.00 | 0.00 | 30 | 1019.8 |
| 20260503033132 | 50 | 243 | 1.0 | 2.0 | 0.00 | 0.00 | 0.00 | 29 | 1019.8 |
| 20260503033007 | 49 | 252 | 1.0 | 2.0 | 0.00 | 0.00 | 0.00 | 29 | 1020.5 |
| 20260503032626 | 50 | 91 | 0.0 | 2.0 | 0.00 | 0.00 | 0.00 | 29 | 1019.7 |
| 20260503032120 | 50 | 91 | 1.0 | 2.0 | 0.00 | 0.00 | 0.00 | 28 | 1019.8 |
| 20260503031513 | 50 | 92 | 0.0 | 3.0 | 0.00 | 0.00 | 0.00 | 28 | 1020.4 |
| 20260503031108 | 51 | 104 | 1.0 | 3.0 | 0.00 | 0.00 | 0.00 | 28 | 1019.7 |
| 20260503030602 | 51 | 115 | 1.0 | 2.0 | 0.00 | 0.00 | 0.00 | 28 | 1019.6 |
| 20260503030056 | 51 | 91 | 1.0 | 3.0 | 0.00 | 0.00 | 0.00 | 28 | 1019.6 |
| 20260503030015 | 51 | 95 | 0.0 | 3.0 | 0.00 | 0.00 | 0.00 | 27 | 1020.3 |
| 20260503025044 | 52 | 90 | 1.0 | 4.0 | 0.00 | 0.00 | 0.00 | 28 | 1019.5 |
| 20260503024538 | 52 | 110 | 2.0 | 4.0 | 0.00 | 0.00 | 0.00 | 28 | 1019.5 |
| 20260503024523 | 51 | 111 | 2.0 | 4.0 | 0.00 | 0.00 | 0.00 | 27 | 1020.2 |
| 20260503024032 | 52 | 97 | 2.0 | 5.0 | 0.00 | 0.00 | 0.00 | 28 | 1019.5 |
| 20260503023526 | 52 | 111 | 2.0 | 5.0 | 0.00 | 0.00 | 0.00 | 28 | 1019.5 |
| 20260503023023 | 52 | 128 | 1.0 | 4.0 | 0.00 | 0.00 | 0.00 | 27 | 1020.2 |
| 20260503023021 | 53 | 115 | 2.0 | 4.0 | 0.00 | 0.00 | 0.00 | 28 | 1019.5 |
| 20260503022514 | 53 | 117 | 2.0 | 6.0 | 0.00 | 0.00 | 0.00 | 27 | 1019.3 |
| 20260503022008 | 53 | 127 | 2.0 | 6.0 | 0.00 | 0.00 | 0.00 | 27 | 1019.3 |
| 20260503021507 | 53 | 156 | 1.0 | 4.0 | 0.00 | 0.00 | 0.00 | 26 | 1020.0 |
| 20260503021502 | 54 | 155 | 1.0 | 4.0 | 0.00 | 0.00 | 0.00 | 27 | 1019.3 |
| 20260503020956 | 54 | 97 | 1.0 | 5.0 | 0.00 | 0.00 | 0.00 | 27 | 1019.2 |
| 20260503020449 | 55 | 101 | 2.0 | 5.0 | 0.00 | 0.00 | 0.00 | 26 | 1019.2 |
| 20260503020016 | 55 | 109 | 1.0 | 7.0 | 0.00 | 0.00 | 0.00 | 25 | 1020.0 |
| 20260503015944 | 55 | 87 | 3.0 | 6.0 | 0.00 | 0.00 | 0.00 | 26 | 1019.2 |
| 20260503015438 | 56 | 58 | 3.0 | 6.0 | 0.00 | 0.00 | 0.00 | 26 | 1019.1 |
| 20260503014932 | 56 | 91 | 3.0 | 6.0 | 0.00 | 0.00 | 0.00 | 25 | 1019.0 |
| 20260503014520 | 56 | 130 | 3.0 | 7.0 | 0.00 | 0.00 | 0.00 | 24 | 1019.8 |
| 20260503013920 | 57 | 107 | 3.0 | 8.0 | 0.00 | 0.00 | 0.00 | 25 | 1019.0 |
| 20260503013414 | 57 | 110 | 4.0 | 8.0 | 0.00 | 0.00 | 0.00 | 24 | 1019.0 |
| 20260503013024 | 57 | 113 | 3.0 | 10.0 | 0.00 | 0.00 | 0.00 | 24 | 1019.7 |
| 20260503012908 | 57 | 150 | 4.0 | 8.0 | 0.00 | 0.00 | 0.00 | 24 | 1019.0 |
| 20260503012401 | 58 | 118 | 5.0 | 10.0 | 0.00 | 0.00 | 0.00 | 24 | 1019.0 |
| 20260503011856 | 58 | 148 | 5.0 | 11.0 | 0.00 | 0.00 | 0.00 | 23 | 1019.0 |
| 20260503011524 | 58 | 112 | 5.0 | 13.0 | 0.00 | 0.00 | 0.00 | 22 | 1019.6 |
| 20260503010845 | 58 | 113 | 4.0 | 11.0 | 0.00 | 0.00 | 0.00 | 23 | 1018.8 |
| 20260503010345 | 59 | 135 | 5.0 | 10.0 | 0.00 | 0.00 | 0.00 | 23 | 1018.8 |
| 20260503010012 | 58 | 128 | 6.0 | 14.0 | 0.00 | 0.00 | 0.00 | 22 | 1019.5 |
| 20260503005845 | 59 | 181 | 6.0 | 14.0 | 0.00 | 0.00 | 0.00 | 23 | 1018.8 |
| 20260503005345 | 59 | 155 | 7.0 | 14.0 | 0.00 | 0.00 | 0.00 | 23 | 1019.0 |
| 20260503004518 | 59 | 94 | 7.0 | 15.0 | 0.00 | 0.00 | 0.00 | 22 | 1019.5 |
| 20260503004346 | 59 | 148 | 6.0 | 13.0 | 0.00 | 0.00 | 0.00 | 23 | 1018.8 |
| 20260503003846 | 60 | 115 | 6.0 | 12.0 | 0.00 | 0.00 | 0.00 | 22 | 1019.0 |
| 20260503003346 | 60 | 150 | 5.0 | 12.0 | 0.00 | 0.00 | 0.00 | 22 | 1019.0 |
| 20260503003021 | 60 | 160 | 7.0 | 13.0 | 0.00 | 0.00 | 0.00 | 22 | 1019.5 |
| 20260503002845 | 60 | 118 | 5.0 | 10.0 | 0.00 | 0.00 | 0.00 | 22 | 1018.8 |
| 20260503002347 | 61 | 104 | 5.0 | 10.0 | 0.00 | 0.00 | 0.00 | 22 | 1019.0 |
| 20260503001524 | 61 | 138 | 3.0 | 10.0 | 0.00 | 0.00 | 0.00 | 22 | 1019.5 |
| 20260503001345 | 61 | 120 | 5.0 | 9.0 | 0.00 | 0.00 | 0.00 | 22 | 1019.0 |
| 20260503000345 | 61 | 131 | 5.0 | 12.0 | 0.00 | 0.00 | 0.00 | 22 | 1019.1 |
| 20260503000033 | 61 | 162 | 4.0 | 16.0 | 0.00 | 0.00 | 0.00 | 22 | 1019.7 |
| 20260502235846 | 61 | 82 | 6.0 | 15.0 | 0.00 | 0.00 | 0.00 | 22 | 1019.1 |
| 20260502235343 | 62 | 227 | 6.0 | 15.0 | 0.00 | 0.00 | 0.00 | 21 | 1019.1 |
| 20260502234844 | 62 | 143 | 5.0 | 14.0 | 0.00 | 0.00 | 0.00 | 22 | 1019.1 |
| 20260502234515 | 61 | 140 | 4.0 | 14.0 | 0.00 | 0.00 | 0.00 | 21 | 1019.8 |
| 20260502234340 | 62 | 163 | 5.0 | 13.0 | 0.00 | 0.00 | 0.00 | 23 | 1019.2 |
| 20260502233840 | 61 | 115 | 6.0 | 11.0 | 0.00 | 0.00 | 0.00 | 22 | 1019.2 |
| 20260502233339 | 62 | 99 | 5.0 | 11.0 | 0.00 | 0.00 | 0.00 | 23 | 1019.2 |
| 20260502233021 | 61 | 114 | 7.0 | 13.0 | 0.00 | 0.00 | 0.00 | 21 | 1020.0 |
| 20260502232839 | 62 | 136 | 5.0 | 11.0 | 0.00 | 0.00 | 0.00 | 22 | 1019.3 |
| 20260502232338 | 62 | 169 | 4.0 | 11.0 | 0.00 | 0.00 | 0.00 | 22 | 1019.3 |
| 20260502231838 | 62 | 154 | 5.0 | 10.0 | 0.00 | 0.00 | 0.00 | 22 | 1019.3 |
| 20260502231525 | 62 | 98 | 5.0 | 14.0 | 0.00 | 0.00 | 0.00 | 23 | 1020.1 |
| 20260502231340 | 62 | 162 | 5.0 | 13.0 | 0.00 | 0.00 | 0.00 | 22 | 1019.3 |
| 20260502230839 | 62 | 110 | 6.0 | 13.0 | 0.00 | 0.00 | 0.00 | 21 | 1019.3 |
| 20260502230338 | 62 | 145 | 5.0 | 10.0 | 0.00 | 0.00 | 0.00 | 22 | 1019.5 |
| 20260502230024 | 62 | 84 | 5.0 | 19.0 | 0.00 | 0.00 | 0.00 | 20 | 1020.0 |
| 20260502225335 | 63 | 112 | 6.0 | 18.0 | 0.00 | 0.00 | 0.00 | 22 | 1019.3 |
| 20260502224834 | 63 | 117 | 6.0 | 18.0 | 0.00 | 0.00 | 0.00 | 22 | 1019.5 |
| 20260502224527 | 63 | 250 | 4.0 | 12.0 | 0.00 | 0.00 | 0.00 | 21 | 1020.2 |
| 20260502224337 | 63 | 172 | 5.0 | 10.0 | 0.00 | 0.00 | 0.00 | 22 | 1019.5 |
| 20260502223836 | 63 | 153 | 5.0 | 10.0 | 0.00 | 0.00 | 0.00 | 22 | 1019.5 |
| 20260502223336 | 62 | 117 | 5.0 | 10.0 | 0.00 | 0.00 | 0.00 | 21 | 1019.6 |
| 20260502223016 | 63 | 123 | 4.0 | 12.0 | 0.00 | 0.00 | 0.00 | 21 | 1020.2 |
| 20260502222834 | 63 | 176 | 5.0 | 10.0 | 0.00 | 0.00 | 0.00 | 22 | 1019.6 |
| 20260502222336 | 64 | 143 | 4.0 | 11.0 | 0.00 | 0.00 | 0.00 | 21 | 1019.7 |
| 20260502221836 | 64 | 157 | 3.0 | 11.0 | 0.00 | 0.00 | 0.00 | 22 | 1019.8 |
| 20260502221522 | 64 | 117 | 1.0 | 9.0 | 0.00 | 0.00 | 0.00 | 21 | 1020.4 |
| 20260502221337 | 64 | 283 | 4.0 | 9.0 | 0.00 | 0.00 | 0.00 | 21 | 1019.8 |
| 20260502220830 | 64 | 168 | 4.0 | 9.0 | 0.00 | 0.00 | 0.00 | 24 | 1019.9 |
| 20260502220026 | 62 | 151 | 4.0 | 11.0 | 0.00 | 0.00 | 0.00 | 22 | 1020.6 |
| 20260502215831 | 63 | 165 | 4.0 | 10.0 | 0.00 | 0.00 | 0.00 | 22 | 1019.9 |
| 20260502215332 | 64 | 126 | 3.0 | 10.0 | 0.00 | 0.00 | 0.00 | 21 | 1020.1 |
| 20260502214531 | 64 | 194 | 3.0 | 9.0 | 0.00 | 0.00 | 0.00 | 22 | 1020.8 |
| 20260502214331 | 64 | 158 | 3.0 | 9.0 | 0.00 | 0.00 | 0.00 | 24 | 1020.3 |
| 20260502213830 | 64 | 191 | 4.0 | 11.0 | 0.00 | 0.00 | 0.00 | 23 | 1020.3 |
| 20260502213332 | 64 | 240 | 4.0 | 11.0 | 0.00 | 0.00 | 0.00 | 23 | 1020.4 |
| 20260502213026 | 63 | 171 | 6.0 | 11.0 | 0.00 | 0.00 | 0.00 | 23 | 1021.0 |
| 20260502212832 | 64 | 195 | 3.0 | 9.0 | 0.00 | 0.00 | 0.00 | 24 | 1020.4 |
| 20260502212332 | 64 | 102 | 3.0 | 12.0 | 0.00 | 0.00 | 0.00 | 24 | 1020.6 |
| 20260502211831 | 63 | 165 | 3.0 | 12.0 | 0.00 | 0.00 | 0.00 | 25 | 1020.6 |
| 20260502211528 | 63 | 88 | 5.0 | 14.0 | 0.00 | 0.00 | 0.00 | 21 | 1021.2 |
| 20260502210832 | 63 | 167 | 4.0 | 13.0 | 0.00 | 0.00 | 0.00 | 23 | 1020.7 |
| 20260502210331 | 64 | 138 | 4.0 | 11.0 | 0.00 | 0.00 | 0.00 | 20 | 1020.9 |
| 20260502210022 | 63 | 147 | 6.0 | 13.0 | 0.00 | 0.00 | 0.00 | 22 | 1021.5 |
| 20260502205832 | 64 | 127 | 4.0 | 13.0 | 0.00 | 0.00 | 0.00 | 24 | 1020.9 |
| 20260502204834 | 63 | 146 | 4.0 | 9.0 | 0.00 | 0.00 | 0.00 | 24 | 1020.9 |
| 20260502204524 | 62 | 152 | 1.0 | 12.0 | 0.00 | 0.00 | 0.00 | 21 | 1021.5 |
| 20260502204332 | 63 | 342 | 4.0 | 10.0 | 0.00 | 0.00 | 0.00 | 22 | 1021.0 |
| 20260502203320 | 61 | 70 | 5.0 | 9.0 | 0.00 | 0.00 | 0.00 | 25 | 1021.0 |
| 20260502203027 | 60 | 144 | 4.0 | 10.0 | 0.00 | 0.00 | 0.00 | 23 | 1021.6 |
| 20260502202316 | 61 | 105 | 4.0 | 11.0 | 0.00 | 0.00 | 0.00 | 23 | 1021.2 |
| 20260502201816 | 62 | 143 | 5.0 | 11.0 | 0.00 | 0.00 | 0.00 | 25 | 1021.3 |
| 20260502201529 | 62 | 94 | 4.0 | 12.0 | 0.00 | 0.00 | 0.00 | 23 | 1021.7 |
| 20260502201314 | 62 | 129 | 3.0 | 11.0 | 0.00 | 0.00 | 0.00 | 25 | 1021.3 |
| 20260502200816 | 62 | 229 | 3.0 | 10.0 | 0.00 | 0.00 | 0.00 | 24 | 1021.2 |
| 20260502200314 | 63 | 54 | 3.0 | 10.0 | 0.00 | 0.00 | 0.00 | 23 | 1021.2 |
| 20260502200020 | 62 | 172 | 4.0 | 10.0 | 0.00 | 0.00 | 0.00 | 25 | 1021.7 |
| 20260502195814 | 62 | 158 | 3.0 | 10.0 | 0.00 | 0.00 | 0.00 | 26 | 1021.3 |
| 20260502195315 | 62 | 131 | 4.0 | 11.0 | 0.00 | 0.00 | 0.00 | 25 | 1021.3 |
| 20260502194523 | 61 | 175 | 4.0 | 11.0 | 0.00 | 0.00 | 0.00 | 26 | 1021.9 |
| 20260502194310 | 61 | 213 | 3.0 | 8.0 | 0.00 | 0.00 | 0.00 | 26 | 1021.3 |
| 20260502193810 | 61 | 128 | 5.0 | 10.0 | 0.00 | 0.00 | 0.00 | 24 | 1021.4 |
| 20260502193311 | 62 | 297 | 4.0 | 10.0 | 0.00 | 0.00 | 0.00 | 25 | 1021.5 |
| 20260502193026 | 61 | 192 | 6.0 | 10.0 | 0.00 | 0.00 | 0.00 | 25 | 1022.0 |
| 20260502192808 | 62 | 126 | 3.0 | 9.0 | 0.00 | 0.00 | 0.00 | 25 | 1021.5 |
| 20260502192310 | 62 | 175 | 4.0 | 11.0 | 0.00 | 0.00 | 0.00 | 23 | 1021.7 |
| 20260502191806 | 63 | 192 | 4.0 | 11.0 | 0.00 | 0.00 | 0.00 | 24 | 1021.7 |
| 20260502191527 | 62 | 153 | 4.0 | 12.0 | 0.00 | 0.00 | 0.00 | 24 | 1022.2 |
| 20260502191306 | 62 | 157 | 5.0 | 12.0 | 0.00 | 0.00 | 0.00 | 25 | 1021.7 |
| 20260502190806 | 62 | 189 | 5.0 | 12.0 | 0.00 | 0.00 | 0.00 | 24 | 1021.7 |
| 20260502190304 | 62 | 174 | 4.0 | 10.0 | 0.00 | 0.00 | 0.00 | 25 | 1021.9 |